This is the latest recevied weather packets stored in our database for station/object YO8SDE-8. If no packets are shown the sender has not sent any weather packets the latest 10 day(s).
| Time | Temp. | Humidity | Pressure | Rain* | Wind** | Luminosity | Snow |
|---|---|---|---|---|---|---|---|
| 1778140557 | 24.44° C | 46% | 1002.1 hPa | 0 mm | - | - | - |
| 1778140257 | 23.89° C | 46% | 1002.2 hPa | 0 mm | - | - | - |
| 1778139957 | 23.89° C | 46% | 1002.2 hPa | 0 mm | - | - | - |
| 1778139657 | 24.44° C | 46% | 1002.3 hPa | 0 mm | - | - | - |
| 1778139357 | 25° C | 45% | 1002.2 hPa | 0 mm | - | - | - |
| 1778139057 | 25° C | 45% | 1002.3 hPa | 0 mm | - | - | - |
| 1778138757 | 25° C | 45% | 1002.4 hPa | 0 mm | - | - | - |
| 1778138457 | 25° C | 46% | 1002.4 hPa | 0 mm | - | - | - |
| 1778138157 | 24.44° C | 46% | 1002.5 hPa | 0 mm | - | - | - |
| 1778137857 | 23.89° C | 47% | 1002.4 hPa | 0 mm | - | - | - |
| 1778137557 | 23.33° C | 48% | 1002.4 hPa | 0 mm | - | - | - |
| 1778137257 | 23.33° C | 49% | 1002.3 hPa | 0 mm | - | - | - |
| 1778136957 | 22.78° C | 49% | 1002.2 hPa | 0 mm | - | - | - |
| 1778136657 | 22.78° C | 50% | 1002.3 hPa | 0 mm | - | - | - |
| 1778136357 | 21.67° C | 51% | 1002.3 hPa | 0 mm | - | - | - |
| 1778136057 | 21.67° C | 52% | 1002.4 hPa | 0 mm | - | - | - |
| 1778135757 | 21.11° C | 53% | 1002.4 hPa | 0 mm | - | - | - |
| 1778135457 | 20.56° C | 54% | 1002.3 hPa | 0 mm | - | - | - |
| 1778135157 | 20° C | 54% | 1002.3 hPa | 0 mm | - | - | - |
| 1778134857 | 20° C | 54% | 1002.4 hPa | 0 mm | - | - | - |
| 1778134557 | 19.44° C | 55% | 1002.6 hPa | 0 mm | - | - | - |
| 1778134257 | 19.44° C | 55% | 1002.6 hPa | 0 mm | - | - | - |
| 1778133957 | 18.89° C | 55% | 1002.5 hPa | 0 mm | - | - | - |
| 1778133657 | 18.89° C | 56% | 1002.6 hPa | 0 mm | - | - | - |
| 1778133357 | 18.89° C | 56% | 1002.6 hPa | 0 mm | - | - | - |
* Rain latest hour (hover to see other rain measurements)
** Current wind speed in m/s (hover to see current wind gust speed)